EW1185 Weather Reports


time (UTC)temp
C
wind
direction
speed
KPH
gust
KPH
rain 1hr
cm
rain 24hr
cm
rain mn
cm
humidity
%
barometer
mb
20260502162020 17 135 0.0 0.0 0.00 0.00 0.00 32 1017.0
20260502161519 17 135 0.0 0.0 0.00 0.00 0.00 32 1016.9
20260502161019 17 135 0.0 0.0 0.00 0.00 0.00 32 1016.9
20260502151519 15 135 0.0 0.0 0.00 0.00 0.00 32 1016.8
20260502130520 6 135 0.0 0.0 0.00 0.00 0.00 39 1016.6
20260502123519 6 135 0.0 0.0 0.00 0.00 0.00 39 1016.6
20260502123019 6 135 0.0 0.0 0.00 0.00 0.00 39 1016.6
20260502122519 6 135 0.0 0.0 0.00 0.00 0.00 39 1016.6
20260502122019 6 135 0.0 0.0 0.00 0.00 0.00 39 1016.6
20260502121519 6 135 0.0 0.0 0.00 0.00 0.00 39 1016.4
20260502121020 6 135 0.0 0.0 0.00 0.00 0.00 39 1016.4
20260502120520 6 135 0.0 0.0 0.00 0.00 0.00 39 1016.4
20260502115519 7 135 0.0 0.0 0.00 0.00 0.00 38 1015.9
20260502115019 7 135 0.0 0.0 0.00 0.00 0.00 38 1015.9
20260502114519 7 135 0.0 0.0 0.00 0.00 0.00 38 1015.9
20260502114019 8 135 0.0 0.0 0.00 0.00 0.00 38 1015.9
20260502113519 8 135 0.0 0.0 0.00 0.00 0.00 38 1015.7
20260502113019 8 135 0.0 0.0 0.00 0.00 0.00 38 1015.7
20260502112519 7 135 0.0 0.0 0.00 0.00 0.00 38 1015.7
20260502112019 7 135 0.0 0.0 0.00 0.00 0.00 38 1015.7
20260502111519 7 135 0.0 0.0 0.00 0.00 0.00 38 1015.5
20260502111019 7 135 0.0 0.0 0.00 0.00 0.00 38 1015.5
20260502110519 8 135 0.0 0.0 0.00 0.00 0.00 38 1015.5
20260502110019 8 135 0.0 0.0 0.00 0.00 0.00 40 1015.5
20260502105019 8 135 0.0 0.0 0.00 0.00 0.00 40 1015.4
20260502104519 9 135 0.0 0.0 0.00 0.00 0.00 40 1015.4
20260502104019 9 135 0.0 0.0 0.00 0.00 0.00 40 1015.4
20260502103519 9 135 0.0 0.0 0.00 0.00 0.00 40 1015.6
20260502103020 9 135 0.0 0.0 0.00 0.00 0.00 40 1015.6
20260502102519 8 135 0.0 0.0 0.00 0.00 0.00 40 1015.6
20260502102019 8 135 0.0 0.0 0.00 0.00 0.00 40 1015.6
20260502101519 8 135 0.0 0.0 0.00 0.00 0.00 40 1015.6
20260502101019 8 135 0.0 0.0 0.00 0.00 0.00 40 1015.6
20260502100519 8 135 0.0 0.0 0.00 0.00 0.00 40 1015.6
20260502091518 8 135 0.0 0.0 0.00 0.00 0.00 41 1015.8
20260502091020 8 135 0.0 0.0 0.00 0.00 0.00 41 1015.8
20260502071519 9 135 0.0 0.0 0.00 0.00 0.00 38 1016.1
20260502071019 9 135 0.0 0.0 0.00 0.00 0.00 38 1016.1
20260502070518 9 135 0.0 0.0 0.00 0.00 0.00 38 1016.1
20260502065519 9 135 0.0 0.0 0.00 0.00 0.00 35 1016.3
20260502064519 9 135 0.0 0.0 0.00 0.00 0.00 35 1016.3
20260502063519 10 135 0.0 0.0 0.00 0.00 0.00 35 1016.3
20260502063019 10 135 0.0 0.0 0.00 0.00 0.00 35 1016.3
20260502062519 11 135 0.0 0.0 0.00 0.00 0.00 35 1016.3
20260502062019 11 135 0.0 0.0 0.00 0.00 0.00 35 1016.3
20260502061019 12 135 0.0 0.0 0.00 0.00 0.00 35 1016.0
20260502060519 12 135 0.0 0.0 0.00 0.00 0.00 35 1016.0
20260502060019 12 135 0.0 0.0 0.00 0.00 0.00 37 1016.0
20260502055519 12 135 0.0 0.0 0.00 0.00 0.00 37 1016.1
20260502055019 12 135 0.0 0.0 0.00 0.00 0.00 37 1016.1
20260502054519 12 135 0.0 0.0 0.00 0.00 0.00 37 1016.1
20260502054019 12 135 0.0 0.0 0.00 0.00 0.00 37 1016.1
20260502053519 12 135 0.0 0.0 0.00 0.00 0.00 37 1016.3
20260502052518 11 135 0.0 0.0 0.00 0.00 0.00 37 1016.3
20260502052019 11 135 0.0 0.0 0.00 0.00 0.00 37 1016.3
20260502051519 11 135 0.0 0.0 0.00 0.00 0.00 37 1016.3
20260502051019 11 135 0.0 0.0 0.00 0.00 0.00 37 1016.3
20260502050518 12 135 0.0 0.0 0.00 0.00 0.00 37 1016.3
20260502050019 12 135 0.0 0.0 0.00 0.00 0.00 37 1016.3
20260502045519 12 135 0.0 0.0 0.00 0.00 0.00 37 1016.4
20260502045019 12 135 0.0 0.0 0.00 0.00 0.00 37 1016.4
20260502044519 12 135 0.0 0.0 0.00 0.00 0.00 37 1016.4
20260502044019 12 135 0.0 0.0 0.00 0.00 0.00 37 1016.4
20260502043519 12 135 0.0 0.0 0.00 0.00 0.00 37 1016.4
20260502043019 12 135 0.0 0.0 0.00 0.00 0.00 37 1016.4
20260502042519 12 135 0.0 0.0 0.00 0.00 0.00 37 1016.4
20260502042019 12 135 0.0 0.0 0.00 0.00 0.00 37 1016.4
20260502041518 12 135 0.0 0.0 0.00 0.00 0.00 37 1016.2
20260502041019 12 135 0.0 0.0 0.00 0.00 0.00 37 1016.2
20260502040518 12 135 0.0 0.0 0.00 0.00 0.00 37 1016.2
20260502035518 12 135 0.0 0.0 0.00 0.00 0.00 37 1016.1
20260502035018 12 135 0.0 0.0 0.00 0.00 0.00 37 1016.1
20260502034519 12 135 0.0 0.0 0.00 0.00 0.00 37 1016.1
20260502033518 12 135 0.0 0.0 0.00 0.00 0.00 37 1015.9
20260502031519 13 135 0.0 0.0 0.00 0.00 0.00 37 1015.8
20260502031019 14 135 0.0 0.0 0.00 0.00 0.00 37 1015.8
20260502030518 14 135 0.0 0.0 0.00 0.00 0.00 37 1015.8
20260502025519 15 135 0.0 0.0 0.00 0.00 0.00 31 1015.6
20260502025019 15 135 0.0 0.0 0.00 0.00 0.00 31 1015.6
20260502024518 15 135 0.0 0.0 0.00 0.00 0.00 31 1015.6
20260502023519 15 135 0.0 0.0 0.00 0.00 0.00 31 1015.6
20260502023019 15 135 0.0 0.0 0.00 0.00 0.00 31 1015.6
20260502022518 15 135 0.0 0.0 0.00 0.00 0.00 31 1015.6
20260502021518 16 135 0.0 0.0 0.00 0.00 0.00 31 1016.3
20260502021018 16 135 0.0 0.0 0.00 0.00 0.00 31 1016.3
20260502020519 16 135 0.0 0.0 0.00 0.00 0.00 31 1016.3
20260502020018 16 135 0.0 0.0 0.00 0.00 0.00 20 1016.3
20260502015518 16 135 0.0 0.0 0.00 0.00 0.00 20 1015.5
20260502015019 16 135 0.0 0.0 0.00 0.00 0.00 20 1015.5
20260502014518 16 135 0.0 0.0 0.00 0.00 0.00 20 1015.5
20260502014018 16 135 0.0 0.0 0.00 0.00 0.00 20 1015.5
20260502013018 17 135 0.0 0.0 0.00 0.00 0.00 20 1015.3
20260502012518 17 135 0.0 0.0 0.00 0.00 0.00 20 1015.3
20260502012018 17 135 0.0 0.0 0.00 0.00 0.00 20 1015.3
20260502011518 18 135 0.0 0.0 0.00 0.00 0.00 20 1015.2
20260502011019 18 135 0.0 0.0 0.00 0.00 0.00 20 1015.2
20260502010518 18 135 0.0 0.0 0.00 0.00 0.00 20 1015.2
20260502010018 18 135 0.0 0.0 0.00 0.00 0.00 18 1015.2
20260502005018 19 135 0.0 0.0 0.00 0.00 0.00 18 1015.2
20260502004018 19 135 0.0 0.0 0.00 0.00 0.00 18 1015.2
20260502003518 19 135 0.0 0.0 0.00 0.00 0.00 18 1015.3
20260502003018 19 135 0.0 0.0 0.00 0.00 0.00 18 1015.3
20260502002518 19 135 0.0 0.0 0.00 0.00 0.00 18 1015.3
20260502002019 19 135 0.0 0.0 0.00 0.00 0.00 18 1015.3
20260502001518 19 135 0.0 0.0 0.00 0.00 0.00 18 1015.3
20260502001018 19 135 0.0 0.0 0.00 0.00 0.00 18 1015.3
20260502000019 19 135 0.0 0.0 0.00 0.00 0.00 19 1015.3
20260501235019 19 135 0.0 0.0 0.00 0.00 0.00 19 1015.4
20260501234518 19 135 0.0 0.0 0.00 0.00 0.00 19 1015.4
20260501234018 19 135 0.0 0.0 0.00 0.00 0.00 19 1015.4
20260501233518 19 135 0.0 0.0 0.00 0.00 0.00 19 1015.5
20260501233018 19 135 0.0 0.0 0.00 0.00 0.00 19 1015.5
20260501232518 19 135 0.0 0.0 0.00 0.00 0.00 19 1015.5
20260501232019 19 135 0.0 0.0 0.00 0.00 0.00 19 1015.5
20260501231517 19 135 0.0 0.0 0.00 0.00 0.00 19 1015.6
20260501231018 19 135 0.0 0.0 0.00 0.00 0.00 19 1015.6
20260501230518 19 135 0.0 0.0 0.00 0.00 0.00 19 1015.6
20260501230018 19 135 0.0 0.0 0.00 0.00 0.00 19 1015.6
20260501225518 19 135 0.0 0.0 0.00 0.00 0.00 19 1015.9
20260501225018 19 135 0.0 0.0 0.00 0.00 0.00 19 1015.9
20260501224518 19 135 0.0 0.0 0.00 0.00 0.00 19 1015.9
20260501224018 19 135 0.0 0.0 0.00 0.00 0.00 19 1015.9
20260501223518 19 135 0.0 0.0 0.00 0.00 0.00 19 1016.0
20260501223018 19 135 0.0 0.0 0.00 0.00 0.00 19 1016.0
20260501221018 18 135 0.0 0.0 0.00 0.00 0.00 19 1016.2
20260501220518 18 135 0.0 0.0 0.00 0.00 0.00 19 1016.2
20260501220018 18 135 0.0 0.0 0.00 0.00 0.00 18 1016.2
20260501215518 18 135 0.0 0.0 0.00 0.00 0.00 18 1016.5
20260501214518 18 135 0.0 0.0 0.00 0.00 0.00 18 1016.5
20260501214018 18 135 0.0 0.0 0.00 0.00 0.00 18 1016.5
20260501213518 18 135 0.0 0.0 0.00 0.00 0.00 18 1016.6
20260501212517 18 135 0.0 0.0 0.00 0.00 0.00 18 1016.6
20260501212018 18 135 0.0 0.0 0.00 0.00 0.00 18 1016.6
20260501211518 18 135 0.0 0.0 0.00 0.00 0.00 18 1016.8
20260501211018 18 135 0.0 0.0 0.00 0.00 0.00 18 1016.8
20260501210518 18 135 0.0 0.0 0.00 0.00 0.00 18 1016.8
20260501210018 18 135 0.0 0.0 0.00 0.00 0.00 18 1016.8
20260501205518 18 135 0.0 0.0 0.00 0.00 0.00 18 1016.3
20260501205019 18 135 0.0 0.0 0.00 0.00 0.00 18 1016.3
20260501204518 18 135 0.0 0.0 0.00 0.00 0.00 18 1016.3
20260501204018 18 135 0.0 0.0 0.00 0.00 0.00 18 1016.3
20260501203518 18 135 0.0 0.0 0.00 0.00 0.00 18 1016.6
20260501202518 18 135 0.0 0.0 0.00 0.00 0.00 18 1016.6
20260501202018 18 135 0.0 0.0 0.00 0.00 0.00 18 1016.6
20260501201518 18 135 0.0 0.0 0.00 0.00 0.00 18 1016.7
20260501201018 18 135 0.0 0.0 0.00 0.00 0.00 18 1016.7
20260501200517 18 135 0.0 0.0 0.00 0.00 0.00 18 1016.7
20260501200018 18 135 0.0 0.0 0.00 0.00 0.00 18 1016.7
20260501195517 18 135 0.0 0.0 0.00 0.00 0.00 18 1016.8
20260501195018 18 135 0.0 0.0 0.00 0.00 0.00 18 1016.8
20260501194517 18 135 0.0 0.0 0.00 0.00 0.00 18 1016.8
20260501194018 18 135 0.0 0.0 0.00 0.00 0.00 18 1016.8
20260501193518 18 135 0.0 0.0 0.00 0.00 0.00 18 1016.9
20260501193018 17 135 0.0 0.0 0.00 0.00 0.00 18 1016.9
20260501192517 17 135 0.0 0.0 0.00 0.00 0.00 18 1016.9
20260501192017 17 135 0.0 0.0 0.00 0.00 0.00 18 1016.9
20260501191517 17 135 0.0 0.0 0.00 0.00 0.00 18 1016.9
20260501191018 17 135 0.0 0.0 0.00 0.00 0.00 18 1016.9
20260501190517 17 135 0.0 0.0 0.00 0.00 0.00 18 1016.9
20260501190018 17 135 0.0 0.0 0.00 0.00 0.00 18 1016.9
20260501185017 17 135 0.0 0.0 0.00 0.00 0.00 18 1016.4
20260501184517 17 135 0.0 0.0 0.00 0.00 0.00 18 1016.4
20260501184018 17 135 0.0 0.0 0.00 0.00 0.00 18 1016.4
20260501183518 16 135 0.0 0.0 0.00 0.00 0.00 18 1016.9
20260501183018 17 135 0.0 0.0 0.00 0.00 0.00 18 1016.9
20260501182517 16 135 0.0 0.0 0.00 0.00 0.00 18 1016.9
20260501182018 16 135 0.0 0.0 0.00 0.00 0.00 18 1016.9
20260501181518 16 135 0.0 0.0 0.00 0.00 0.00 18 1017.1
20260501181017 16 135 0.0 0.0 0.00 0.00 0.00 18 1017.1
20260501180518 16 135 0.0 0.0 0.00 0.00 0.00 18 1017.1
20260501180018 16 135 0.0 0.0 0.00 0.00 0.00 24 1017.1
20260501175517 16 135 0.0 0.0 0.00 0.00 0.00 24 1017.0
20260501174518 16 135 0.0 0.0 0.00 0.00 0.00 24 1017.0
20260501174017 16 135 0.0 0.0 0.00 0.00 0.00 24 1017.0
20260501173517 16 135 0.0 0.0 0.00 0.00 0.00 24 1017.1
20260501173017 16 135 0.0 0.0 0.00 0.00 0.00 24 1017.1
20260501172518 16 135 0.0 0.0 0.00 0.00 0.00 24 1017.1
20260501172018 16 135 0.0 0.0 0.00 0.00 0.00 24 1017.1
20260501171517 16 135 0.0 0.0 0.00 0.00 0.00 24 1016.9
20260501171017 15 135 0.0 0.0 0.00 0.00 0.00 24 1016.9
20260501170518 16 135 0.0 0.0 0.00 0.00 0.00 24 1016.9
20260501165517 15 135 0.0 0.0 0.00 0.00 0.00 38 1016.9
20260501165017 15 135 0.0 0.0 0.00 0.00 0.00 38 1016.9
20260501164518 15 135 0.0 0.0 0.00 0.00 0.00 38 1016.9
20260501164017 15 135 0.0 0.0 0.00 0.00 0.00 38 1016.9
20260501163518 15 135 0.0 0.0 0.00 0.00 0.00 38 1016.8
20260501163017 15 135 0.0 0.0 0.00 0.00 0.00 38 1016.8
20260501162517 15 135 0.0 0.0 0.00 0.00 0.00 38 1016.8